Flag for U.S.A. Weather past 2 weeks in Aurora, Illinois, U.S.A.

Now
43 °F

Sunny.


Feels Like: 35 °F
Forecast: 38 / 54 °F
Wind: 16 mph from West

Location: Dupage Airport

Current Time: Apr 20, 2015 at 8:57:57 PM

Latest Report: Apr 20, 2015 at 7:52 PM


Visibility: 10 mi

Pressure: 29.61 "Hg

Humidity: 62%

Dew point: 31 °F

Location of AuroraLocation

Historic Weather in Aurora — Graph

°F

Aurora temperature yesterday

Maximum temperature yesterday: 70 °F (at 12:52 PM)
Minimum temperature yesterday: 50 °F (at 10:52 PM)
Average temperature yesterday: 57 °F

Past Weeks' High & Low Weather Summary

 TemperatureHumidityPressure
High77 °F (Apr 17, 3:52 PM)100% (Apr 9, 5:52 AM)30.28 "Hg (Apr 9, 5:52 AM)
Low34 °F (Apr 6, 1:52 AM)16% (Apr 14, 2:52 PM)29.23 "Hg (Apr 20, 6:52 AM)
Average53 °F64%29.96 "Hg
* Reported Apr 5 7:52 PM — Apr 20 7:52 PM, Aurora, Weather by CustomWeather, © 2015

Note: Actual official high and low records may vary slightly from our data, if they occured in-between our weather recording intervals... More about our weather records

Advertising

Aurora weather history for previous 24 hours

 ConditionsComfort  
Time TempWeatherWind HumidityBarometerVisibility
7:52 PM
Mon, Apr 20
43 °FSunny.16 mph62%29.61 "Hg10 mi
6:52 PM46 °FPartly sunny.21 mph58%29.59 "Hg10 mi
5:52 PM46 °FOvercast.26 mph61%29.57 "Hg10 mi
4:52 PM47 °FOvercast.29 mph61%29.54 "Hg10 mi
3:52 PM46 °FOvercast.25 mph66%29.53 "Hg10 mi
2:52 PM46 °FMore clouds than sun.23 mph68%29.51 "Hg10 mi
1:52 PM45 °FOvercast.26 mph74%29.48 "Hg10 mi
12:52 PM46 °FOvercast.23 mph73%29.45 "Hg10 mi
11:52 AM47 °FOvercast.23 mph71%29.41 "Hg10 mi
10:52 AM47 °FMostly cloudy.18 mph74%29.37 "Hg10 mi
9:52 AM46 °FOvercast.21 mph83%29.34 "Hg10 mi
8:52 AM47 °FOvercast.24 mph86%29.31 "Hg10 mi
7:52 AM49 °FOvercast.20 mph90%29.28 "Hg10 mi
6:52 AM50 °FLow clouds.17 mph96%29.23 "Hg9 mi
5:52 AM51 °FFog.20 mph96%29.23 "Hg3 mi
4:52 AM50 °FFog.7 mph96%29.24 "Hg2 mi
3:52 AM50 °FLow clouds.10 mph93%29.25 "Hg8 mi
2:52 AM50 °FLow clouds.9 mph93%29.25 "Hg9 mi
1:52 AM50 °FLow clouds.10 mph93%29.26 "Hg9 mi
12:52 AM50 °FLow clouds.8 mph93%29.27 "Hg10 mi
11:52 PM
Sun, Apr 19
51 °FMostly cloudy.7 mph92%29.27 "Hg10 mi
11:03 PM50 °FLight rain. Fog.9 mph96%29.31 "Hg2 mi
10:52 PM50 °FLight rain. Fog.10 mph96%29.31 "Hg2 mi
9:52 PM51 °FRain. Fog.7 mph96%29.34 "Hg3 mi
8:52 PM52 °FLight rain. Fog.10 mph93%29.37 "Hg6 mi
Weather by CustomWeather, © 2015

See weather overviewHow to use our weather pages